Regional Weather Roundup
Issued by NWS

Home | Current Version | Previous Version | Text Only | Print | Product List | Glossary Off
Versions: 1 2 3 4 5 6 7 8 9 10 11 12 13 14 15 16 17 18 19 20 21 22 23 24 25 26 27 28 29 30 31 32 33 34 35 36 37 38 39 40 41 42 43 44 45 46 47 48 49 50

000
ASUS43 KMPX 240410
RWRMN
WEATHER ROUNDUP FOR MINNESOTA
NATIONAL WEATHER SERVICE TWIN CITIES/CHANHASSEN MN
1100 PM CDT MON APR 23 2018


NOTE: "FAIR" INDICATES FEW OR NO CLOUDS BELOW 12,000 FEET WITH NO
SIGNIFICANT WEATHER AND/OR OBSTRUCTIONS TO VISIBILITY. N/A MEANS
CURRENT SKY AND/OR WEATHER CONDITIONS ARE NOT AVAILABLE.

MNZ060>063-068>070-240500-
   Twin Cities Metro

CITY           SKY/WX    TMP DP  RH WIND       PRES   REMARKS
TWIN CITIES    FAIR      56  40  55 N5        30.13S
ST PAUL        FAIR      52  40  63 CALM      30.13S
CRYSTAL        FAIR      53  38  56 W3        30.13R
BLAINE         FAIR      52  37  58 CALM      30.13S
LAKEVILLE      FAIR      46  39  76 CALM      30.13S
EDEN PRAIRIE   FAIR      57  39  51 NW3       30.12S
SOUTH ST PAUL  FAIR      54  37  53 CALM      30.13R
LAKE ELMO      FAIR      46  37  71 CALM      30.14S
$$
MNZ001>005-007-008-013>017-022>024-027-028-240500-
   Northwest Minnesota

CITY           SKY/WX    TMP DP  RH WIND       PRES   REMARKS
BEMIDJI        FAIR      43  31  62 NW6       30.17S
HALLOCK        FAIR      48  36  61 N13       30.22R
ROSEAU         FAIR      48  36  61 CALM      30.20R
WARROAD        FAIR      46  34  61 W3        30.20R
THIEF RVR FALL FAIR      48  37  65 NW8       30.21R
CROOKSTON      FAIR      50  41  71 N12       30.21R
FOSSTON        FAIR      45  36  70 CALM      30.20S
DETROIT LAKES  FAIR      50  36  57 CALM      30.19S
MOORHEAD       FAIR      50  39  66 NE8       30.19S
PARK RAPIDS    FAIR      52  33  48 N6        30.16R
MAHNOMEN       FAIR      47  35  64 N8        30.18F
$$
MNZ006-009>011-018-025>026-240500-
   North Central Minnesota

CITY           SKY/WX    TMP DP  RH WIND       PRES   REMARKS
BAUDETTE       MOCLDY    42  32  67 CALM      30.17R
FLAG ISLAND    FAIR      41  30  65 N3        30.18R
INTL FALLS     FAIR      39  30  70 CALM      30.15R
WASKISH        FAIR      39  30  70 CALM      30.18R
BIG FORK       FAIR      41  28  60 CALM      30.16R
LONGVILLE      FAIR      41  32  70 CALM      30.16R HAZE
GRAND RAPIDS   FAIR      49  28  44 CALM      30.16R
CRANE LAKE     FAIR      30  25  80 CALM      30.17R
ORR            FAIR      39  27  60 CALM      30.13R
COOK           FAIR      39  28  65 CALM      30.15S
WALKER         FAIR      50  31  47 NW6       30.16S
$$
MNZ012-019>021-037-240500-
   Northeast Minnesota

CITY           SKY/WX    TMP DP  RH WIND       PRES   REMARKS
DULUTH         FAIR      50  35  56 W5        30.12S
ELY            FAIR      37  27  65 CALM      30.13S
HIBBING        FAIR      43  28  55 N3        30.13R
EVELETH        FAIR      47  29  49 N3        30.14S
DULUTH HARBOR  FAIR      52  39  62 SW5       30.11S
TWO HARBORS    FAIR      48  36  61 NW3       30.09S
SILVER BAY     FAIR      37  30  75 CALM      30.09F
GRAND MARAIS     N/A     38  31  76 CALM      30.09F
G MARAIS ARPRT FAIR      41  25  52 NW7       30.12S
$$
MNZ029>031-032-039>041-046>048-054>057-064-240500-
   West Central Minnesota

CITY           SKY/WX    TMP DP  RH WIND       PRES   REMARKS
FERGUS FALLS   CLOUDY    54  37  54 NE9       30.14S
WHEATON        CLOUDY    55  43  62 NW5       30.18R
MORRIS         CLOUDY    57  43  58 CALM      30.14S
ALEXANDRIA     MOCLDY    53  40  61 NW5       30.16R
ELBOW LAKE     CLOUDY    50  42  74 E5        30.16S
WADENA         FAIR      50  36  57 N5        30.16S
GLENWOOD       FAIR      55  39  54 W5        30.16S
APPLETON       PTCLDY    50  43  76 CALM      30.15R
BENSON         PTCLDY    48  43  81 CALM      30.17R
ORTONVILLE     CLOUDY    54  43  66 CALM      30.15S
MADISON        CLOUDY    54  48  82 CALM      30.15S
WILLMAR        FAIR      50  43  76 CALM      30.17S
$$
MNZ033>034-036-042>043-049>051-058-059-240500-
   Central Minnesota

CITY           SKY/WX    TMP DP  RH WIND       PRES   REMARKS
ST CLOUD       FAIR      47  38  71 CALM      30.13S
SAUK CENTRE    FAIR      48  41  75 CALM      30.14F
PAYNESVILLE    FAIR      45  39  81 W3        30.15S
AITKIN         FAIR      39  34  81 CALM      30.13R
PINE RIVER     FAIR      46  30  53 NW5       30.19R
BRAINERD       FAIR      49  34  56 N7        30.14R
STAPLES        FAIR      46  36  66 NW5       30.16R
LONG PRAIRIE   FAIR      45  37  76 CALM      30.16R
LITTLE FALLS   MOCLDY    45  32  61 CALM      30.14S
LITCHFIELD     FAIR      50  45  81 CALM      30.15F
BUFFALO        FAIR      49  40  71 CALM      30.15S
MAPLE LAKE     FAIR      45  40  84 CALM      30.15S
HUTCHINSON     FAIR      47  45  91 CALM      30.16S
$$
MNZ037-044-045-052-053-240500-
   East Central Minnesota

CITY           SKY/WX    TMP DP  RH WIND       PRES   REMARKS
PRINCETON      FAIR      45  39  81 CALM      30.14S
MORA           FAIR      39  34  81 CALM      30.15S
CAMBRIDGE      FAIR      46  34  61 CALM      30.13F
RUSH CITY      MOCLDY    45  39  77 CALM      30.13S
MOOSE LAKE     FAIR      43  34  70 CALM      30.11S
HINCKLEY       FAIR      41  34  75 CALM      30.13R
CLOQUET        FAIR      46  34  61 W3        30.13R
MCGREGOR       FAIR      43  36  75 W3        30.14S
$$
MNZ071>073-080-081-089-090-097-098-240500-
   Southwest Minnesota

CITY           SKY/WX    TMP DP  RH WIND       PRES   REMARKS
MONTEVIDEO     PTCLDY    54  39  58 SW3       30.15S
GRANITE FALLS  CLEAR     51  45  80 CALM      30.16S
CANBY          MOCLDY    48  41  77 SW3       30.16S
MARSHALL       CLEAR     48  41  76 CALM      30.15S
REDWOOD FALLS  CLEAR     53  43  68 SW3       30.14S
OLIVIA         CLEAR     52  43  71 CALM      30.14F
PIPESTONE      CLOUDY   N/A N/A N/A SE6       30.15S
WINDOM         PTCLDY    48  32  53 CALM      30.16S
WORTHINGTON    CLEAR     49  40  71 SE3       30.16S
JACKSON        CLEAR     45  39  81 CALM      30.16S
TRACY          CLEAR     50  41  69 SW5       30.15S
SLAYTON        CLOUDY    49  42  76 CALM      30.16S
$$
MNZ065>067-074>077-082>085-091>093-240500-
   South Central Minnesota

CITY           SKY/WX    TMP DP  RH WIND       PRES   REMARKS
MANKATO        FAIR      56  41  57 CALM      30.14S
NEW ULM        CLEAR     52  45  76 W3        30.14F
ST JAMES       CLEAR     50  43  76 CALM      30.16S
FAIRMONT       CLEAR     48  40  73 CALM      30.15S
GLENCOE        FAIR      52  48  84 CALM      30.13F
OWATONNA       FAIR      46  41  81 CALM      30.14S
WASECA         FAIR      50  41  71 NW5       30.14S
ALBERT LEA     FAIR      46  39  76 CALM      30.14S
$$
MNZ078>079-086>088-094>096-240500-
   Southeast Minnesota

CITY           SKY/WX    TMP DP  RH WIND       PRES   REMARKS
ROCHESTER      FAIR      57  33  40 N3        30.13S
RED WING       FAIR      46  30  53 CALM      30.12S
STANTON        FAIR      46  42  84 S6        30.12S
DODGE CENTER   FAIR      52  36  54 CALM      30.13S
WINONA         FAIR      50  37  62 CALM      30.11R
AUSTIN         FAIR      48  39  71 CALM      30.12F
PRESTON        FAIR      54  33  45 N5        30.13S
$$
ABBREVIATIONS USED IN REMARKS
   TC - TEMPERATURES IN CELSIUS
  WCI - WIND CHILL INDEX
   HX - HEAT INDEX
  VSB - VISIBILITY
$$




USA.gov is the U.S. government's official web portal to all federal, state and local government web resources and services.